EW3707 Weather Reports


Display with metric or nautical units.
time (UTC)temp
F
wind
direction
speed
MPH
gust
MPH
rain 1hr
in
rain 24hr
in
rain mn
in
humidity
%
barometer
mb
20260901044016 70 0.0 0.0 0.00 0.00 0.00 1 1012.8
20260901043016 71 0.0 0.0 0.00 0.00 0.00 1 1012.8
20260901042016 71 0.0 0.0 0.00 0.00 0.00 7 1012.7
20260901041037 71 0.0 0.0 0.00 0.00 0.00 11 1012.6
20260901040036 72 0.0 0.0 0.00 0.00 0.00 19 1012.6
20260901035016 72 0.0 0.0 0.00 0.00 0.00 25 1012.5
20260901034016 72 0.0 0.0 0.00 0.00 0.00 42 1012.6
20260901033016 73 0.0 0.0 0.00 0.00 0.00 37 1012.5
20260901032016 73 0.0 0.0 0.00 0.00 0.00 44 1012.4
20260901031017 73 0.0 0.0 0.00 0.00 0.00 49 1012.4
20260901030057 74 0.0 0.0 0.00 0.00 0.00 55 1012.4
20260901025016 74 0.0 0.0 0.00 0.00 0.00 58 1012.3
20260901024017 75 0.0 0.0 0.00 0.00 0.00 62 1012.4
20260901023016 76 0.0 0.0 0.00 0.00 0.00 66 1012.3
20260901022016 76 0.0 0.0 0.00 0.00 0.00 67 1012.3
20260901021016 77 0.0 0.0 0.00 0.00 0.00 70 1012.3
20260901020016 78 0.0 0.0 0.00 0.00 0.00 72 1012.3
20260901015017 78 0.0 0.0 0.00 0.00 0.00 73 1012.2
20260901014017 79 0.0 0.0 0.00 0.00 0.00 73 1012.0
20260901013036 80 0.0 0.0 0.00 0.00 0.00 74 1011.9
20260901012016 81 0.0 0.0 0.00 0.00 0.00 74 1011.7
20260901011017 82 0.0 0.0 0.00 0.00 0.00 73 1011.6
20260901010016 83 0.0 0.0 0.00 0.00 0.00 70 1011.5
20260901005017 84 0.0 0.0 0.00 0.00 0.00 67 1011.5
20260901004017 84 0.0 0.0 0.00 0.00 0.00 66 1011.3
20260901003016 85 0.0 1.0 0.00 0.00 0.00 65 1011.2
20260901002016 86 0.0 1.0 0.00 0.00 0.00 65 1011.2
20260901001017 87 0.0 1.0 0.00 0.00 0.00 65 1011.3
20260901000016 87 0.0 2.0 0.00 0.00 0.00 66 1011.1
20260831235017 88 225 1.0 5.0 0.00 0.00 0.00 71 1011.1
20260831234016 88 0.0 1.0 0.00 0.00 0.00 71 1010.9
20260831233016 88 0.0 1.0 0.00 0.00 0.00 70 1010.9
20260831232016 89 225 1.0 4.0 0.00 0.00 0.00 70 1010.9
20260831231016 90 248 1.0 3.0 0.00 0.00 0.00 68 1011.0
20260831230017 91 225 1.0 3.0 0.00 0.00 0.00 67 1010.8
20260831225016 91 0.0 3.0 0.00 0.00 0.00 67 1010.7
20260831224016 90 0.0 3.0 0.00 0.00 0.00 67 1010.6
20260831223016 91 203 1.0 6.0 0.00 0.00 0.00 67 1010.7
20260831222017 91 248 1.0 4.0 0.00 0.00 0.00 65 1010.6
20260831221016 92 0.0 3.0 0.00 0.00 0.00 65 1010.5
20260831220016 91 270 1.0 4.0 0.00 0.00 0.00 65 1010.6
20260831215016 92 0.0 2.0 0.00 0.00 0.00 64 1010.5
20260831214016 91 270 1.0 9.0 0.00 0.00 0.00 65 1010.5
20260831213017 90 270 1.0 5.0 0.00 0.00 0.00 66 1010.4
20260831212016 91 248 1.0 6.0 0.00 0.00 0.00 65 1010.3
20260831211016 90 248 3.0 6.0 0.00 0.00 0.00 65 1010.2
20260831210016 90 248 2.0 7.0 0.00 0.00 0.00 66 1010.2
20260831205017 90 248 2.0 6.0 0.00 0.00 0.00 66 1010.2
20260831204017 91 248 1.0 4.0 0.00 0.00 0.00 66 1010.2
20260831203017 90 293 1.0 5.0 0.00 0.00 0.00 67 1010.3
20260831202016 90 0.0 2.0 0.00 0.00 0.00 66 1010.3
20260831201016 89 203 2.0 4.0 0.00 0.00 0.00 67 1010.2
20260831200016 89 248 2.0 6.0 0.00 0.00 0.00 67 1010.2
20260831195037 88 0.0 1.0 0.00 0.00 0.00 68 1010.3
20260831194017 88 248 1.0 4.0 0.00 0.00 0.00 68 1010.5
20260831193016 88 0.0 1.0 0.00 0.00 0.00 68 1010.5
20260831192016 88 270 1.0 4.0 0.00 0.00 0.00 68 1010.5
20260831191016 88 0.0 1.0 0.00 0.00 0.00 68 1010.4
20260831190036 87 248 1.0 4.0 0.00 0.00 0.00 68 1010.4
20260831185016 88 0.0 5.0 0.00 0.00 0.00 69 1010.5
20260831184016 88 248 2.0 7.0 0.00 0.00 0.00 69 1010.6
20260831183016 88 0.0 2.0 0.00 0.00 0.00 69 1010.7
20260831182036 87 248 1.0 4.0 0.00 0.00 0.00 69 1010.8
20260831181017 87 270 1.0 6.0 0.00 0.00 0.00 69 1010.8
20260831180016 87 248 3.0 8.0 0.00 0.00 0.00 71 1010.9
20260831175016 87 248 2.0 6.0 0.00 0.00 0.00 70 1010.9
20260831174017 87 225 2.0 7.0 0.00 0.00 0.00 70 1010.9
20260831173016 86 248 1.0 4.0 0.00 0.00 0.00 70 1011.0
20260831172016 86 248 1.0 4.0 0.00 0.00 0.00 71 1010.9
20260831171016 86 203 1.0 4.0 0.00 0.00 0.00 71 1010.6
20260831170016 86 225 1.0 4.0 0.00 0.00 0.00 71 1010.8
20260831165036 85 203 1.0 3.0 0.00 0.00 0.00 71 1010.7
20260831164016 85 0.0 2.0 0.00 0.00 0.00 72 1010.5
20260831163036 85 0.0 3.0 0.00 0.00 0.00 72 1010.4
20260831162036 85 0.0 1.0 0.00 0.00 0.00 72 1010.5
20260831161016 85 180 1.0 4.0 0.00 0.00 0.00 72 1010.5
20260831160016 84 0.0 2.0 0.00 0.00 0.00 72 1010.5
20260831155036 83 248 1.0 4.0 0.00 0.00 0.00 73 1010.5
20260831154016 83 248 1.0 5.0 0.00 0.00 0.00 74 1010.6
20260831153016 82 248 2.0 5.0 0.00 0.00 0.00 74 1010.3
20260831152016 82 270 1.0 5.0 0.00 0.00 0.00 74 1010.4
20260831151016 81 248 2.0 5.0 0.00 0.00 0.00 74 1010.1
20260831150016 81 248 1.0 4.0 0.00 0.00 0.00 74 1010.2
20260831145016 81 225 1.0 5.0 0.00 0.00 0.00 74 1010.1
20260831144016 81 203 1.0 3.0 0.00 0.00 0.00 74 1010.1
20260831143016 81 0.0 3.0 0.00 0.00 0.00 74 1010.1
20260831142016 80 0.0 3.0 0.00 0.00 0.00 73 1010.0
20260831141016 79 0.0 2.0 0.00 0.00 0.00 71 1009.9
20260831140016 78 90 1.0 2.0 0.00 0.00 0.00 71 1009.8
20260831135016 77 90 1.0 3.0 0.00 0.00 0.00 71 1010.0
20260831134016 77 113 1.0 3.0 0.00 0.00 0.00 72 1009.8
20260831133016 76 0.0 2.0 0.00 0.00 0.00 67 1009.8
20260831132016 76 113 1.0 3.0 0.00 0.00 0.00 68 1009.8
20260831131036 76 0.0 1.0 0.00 0.00 0.00 68 1009.7
20260831130016 75 0.0 1.0 0.00 0.00 0.00 57 1009.8
20260831125016 73 0.0 1.0 0.00 0.00 0.00 43 1009.3
20260831124016 72 0.0 0.0 0.00 0.00 0.00 1 1009.1
20260831123016 71 0.0 0.0 0.00 0.00 0.00 1 1009.3
20260831122016 69 0.0 0.0 0.00 0.00 0.00 1 1008.9
20260831121036 69 0.0 0.0 0.00 0.00 0.00 1 1008.9
20260831120016 69 0.0 0.0 0.00 0.00 0.00 1 1008.8
20260831115016 69 0.0 0.0 0.00 0.00 0.00 1 1008.8
20260831114016 69 0.0 0.0 0.00 0.00 0.00 1 1008.7
20260831113016 68 0.0 1.0 0.00 0.00 0.00 1 1008.8
20260831112016 68 0.0 0.0 0.00 0.00 0.00 1 1009.0
20260831111016 68 0.0 0.0 0.00 0.00 0.00 1 1009.0
20260831110016 68 0.0 0.0 0.00 0.00 0.00 1 1009.1
20260831105016 68 0.0 0.0 0.00 0.00 0.00 1 1009.0
20260831104016 68 0.0 0.0 0.00 0.00 0.00 1 1009.0
20260831103016 68 0.0 0.0 0.00 0.00 0.00 1 1009.2
20260831102016 69 0.0 0.0 0.00 0.00 0.00 1 1009.1
20260831101016 69 0.0 0.0 0.00 0.00 0.00 1 1008.9
20260831100036 69 0.0 1.0 0.00 0.00 0.00 1 1008.7
20260831095016 69 0.0 0.0 0.00 0.00 0.00 1 1008.9
20260831094016 69 0.0 0.0 0.00 0.00 0.00 1 1009.0
20260831093016 68 0.0 0.0 0.00 0.00 0.00 1 1009.0
20260831092016 69 0.0 0.0 0.00 0.00 0.00 1 1009.2
20260831091016 69 0.0 0.0 0.00 0.00 0.00 1 1009.1
20260831090016 69 0.0 0.0 0.00 0.00 0.00 1 1009.1
20260831085016 69 0.0 0.0 0.00 0.00 0.00 2 1008.8
20260831084016 70 0.0 0.0 0.00 0.00 0.00 2 1008.9
20260831083016 70 0.0 0.0 0.00 0.00 0.00 7 1008.9
20260831082016 70 0.0 2.0 0.00 0.00 0.00 5 1008.9
20260831081016 70 0.0 1.0 0.00 0.00 0.00 1 1008.9
20260831080016 70 0.0 0.0 0.00 0.00 0.00 5 1008.8
20260831075016 70 0.0 0.0 0.00 0.00 0.00 4 1008.9
20260831074016 70 0.0 0.0 0.00 0.00 0.00 9 1009.0
20260831073016 71 0.0 0.0 0.00 0.00 0.00 11 1008.9
20260831072016 71 0.0 0.0 0.00 0.00 0.00 23 1009.2
20260831071016 71 0.0 0.0 0.00 0.00 0.00 28 1009.4
20260831070056 71 0.0 0.0 0.00 0.00 0.00 37 1009.6
20260831065036 72 0.0 0.0 0.00 0.00 0.00 43 1009.7
20260831064016 72 0.0 0.0 0.00 0.00 0.00 52 1009.7
20260831063016 73 0.0 1.0 0.00 0.00 0.00 53 1009.8
20260831062036 73 0.0 0.0 0.00 0.00 0.00 57 1009.9
20260831061016 73 0.0 1.0 0.00 0.00 0.00 57 1010.0
20260831060016 73 0.0 3.0 0.00 0.00 0.00 58 1010.2
20260831055016 74 0.0 0.0 0.00 0.00 0.00 61 1010.3
20260831054016 74 0.0 0.0 0.00 0.00 0.00 64 1010.4
20260831053036 74 0.0 1.0 0.00 0.00 0.00 65 1010.3
20260831052016 74 0.0 0.0 0.00 0.00 0.00 66 1010.4
20260831051016 75 90 1.0 5.0 0.00 0.00 0.00 67 1010.4
20260831050016 75 0.0 0.0 0.00 0.00 0.00 67 1010.5
20260831045016 75 0.0 4.0 0.00 0.00 0.00 68 1010.6